Portada
METAR-TAF:

METAR-TAF

Aeroports :

Vientiane, Laos

latitud: 17-57N, longitud: 102-34E, altitud: 171 m

Observació

L'informe es va fer fa 1 hora i 8 minuts, a les 08:00 UTC
Vent 4 kt del Sud-Est
Temperatura 34°C
Humitat 56%
Pressió 1005 hPa
Visibilitat: 8000 m
Núvols disperses a una alçada de 1600 ft
Cel ennuvolat a una alçada de 5000 ft

METAR: VLVT 060800Z 14004KT 8000 SCT016 BKN050 34/24 Q1005 NOSIG

Hora: 16:08 (09:08 UTC)

Pronòstic

L'informe es va fer fa 4 hores i 8 minuts, a les 05:00 UTC
Pronòstic vàlid del 06 a les 06 UTC al 07 a les 06 UTC
Vent 4 kt del Est
Visibilitat 10 km o més
Núvols disperses a una alçada de 1600 ft
Núvols disperses a una alçada de 20000 ft

TAF: VLVT 060500Z 0606/0706 09004KT 9999 SCT016 SCT200

Observacions i pronòstics meteorològics de més de 4000 aeroports (METAR i TAF).

Les estacions disponibles són els punts grocs i vermells al mapa.

Posi el ratolí al punt desitjat per veure el nom de l'estació.

Feu clic per veure les observacions i els pronòstics meteorològics.

Per canviar el mapa: feu clic els botons verds amb una creu de color negre per apropar; al botó verd amb un guió per allunyar la imatge; o en les fletxes verdes per a mapes adjacents.


METAR-TAF: